[[{"header":{"parameterUnit":"m.s-1","parameterCategory":1,"la1":30.2991,"la2":30.254,"lo1":-89.0895,"lo2":-89.0444,"dy":0.0017,"dx":0.0017,"nx":28,"ny":28,"refTime":"2024-04-03T03:00:00:Z","depth":0,"parameterNumber":2,"parameterNumberName":"U-component_of_WINDS"},"data":[0,0,0,0,0,0,0,0,0,0,0,0,0,0,0,0,0,0,0,0,0,0,0,0,0,0,0,0,0,0,0,0,0,0,0,0,0,0,0,0,0,0,0,0,0,0,0,0,0,0,0,0,0,0,0,0,0,0,5.0694,5.0695,0,5.0763,5.0764,5.0764,5.0702,5.0699,5.0697,5.0694,5.0764,5.0769,5.0773,0,0,0,0,0,0,0,0,0,0,0,0,0,5.051,5.0513,5.0694,5.0695,5.0696,5.0763,5.0764,5.0765,5.0702,5.0699,5.0696,5.0693,5.0763,5.0768,5.0773,0,0,0,0,0,0,0,0,0,0,0,0,0,5.0585,5.0514,5.0694,5.0673,5.0671,5.0763,5.0764,5.0765,5.0703,5.0699,5.0695,5.0692,5.0761,5.0768,5.0774,5.0889,0,0,5.0793,5.0796,0,0,0,0,0,0,0,0,5.0581,5.0592,5.0675,5.0674,5.0673,5.072,5.0724,5.0807,5.0704,5.0691,5.0694,5.069,5.0753,5.076,5.0781,5.0892,5.0895,5.0794,5.0798,5.08,5.0802,0,0,0,0,0,0,0,5.0576,5.0589,5.0721,5.0676,5.0675,5.066,5.0667,5.074,5.0742,5.0692,5.0687,5.0697,5.0751,5.0775,5.0782,5.0896,5.0794,5.0799,5.0803,5.0806,5.1109,5.1113,0,0,0,0,0,0,5.0573,5.0585,5.0719,5.0723,5.0617,5.0667,5.0674,5.0709,5.0741,5.0743,5.07,5.0693,5.0766,5.0775,5.0784,5.0923,5.08,5.0806,5.081,5.1105,5.111,5.1114,0,0,0,0,0,0,5.0569,5.0585,5.0716,5.0653,5.0668,5.0674,5.0713,5.0712,5.0735,5.0747,5.0747,5.0723,5.0763,5.0775,5.0864,5.0924,5.0809,5.0815,5.11,5.1106,5.1112,5.12,0,0,0,0,0,0,5.0564,5.0584,5.0628,5.0654,5.0672,5.0795,5.0717,5.0716,5.0746,5.0739,5.0769,5.0771,5.0761,5.0855,5.087,5.0931,5.082,5.1094,5.1102,5.111,5.1192,5.1208,5.1223,0,0,0,0,0,5.0558,5.0649,5.063,5.0647,5.0726,5.0798,5.0808,5.0796,5.0752,5.0796,5.0804,5.077,5.0915,5.0865,5.0881,5.0945,5.109,5.11,5.1109,5.1185,5.1205,5.1222,0,0,0,0,0,0,5.0628,5.0652,5.0631,5.0734,5.0765,5.0788,5.0842,5.0818,5.0861,5.0852,5.0835,5.0842,5.0936,5.0949,5.0892,5.1059,5.0996,5.1009,5.1047,5.1067,5.1082,5.1077,5.0825,0,0,0,0,0,5.0656,5.0712,5.073,5.0819,5.0836,5.0837,5.0868,5.0856,5.0887,5.0899,5.0913,5.0945,5.0998,5.1033,5.1082,5.1194,5.12,5.1246,5.1261,5.1274,5.1286,5.1347,5.1368,5.1146,5.1146,5.1145,0,0,5.0713,5.0733,5.077,5.0834,5.0856,5.0916,5.0848,5.0913,5.0957,5.0909,5.0994,5.1006,5.104,5.1141,5.1187,5.1155,5.1349,5.1286,5.1296,5.1301,5.1359,5.138,5.1399,5.1152,5.1151,5.115,0,0,5.0848,5.0869,5.0946,5.0971,5.1006,5.1006,5.1025,5.1053,5.1059,5.1145,5.111,5.1163,5.1254,5.128,5.1306,5.1454,5.1425,5.1471,5.1552,5.1613,5.163,5.1646,5.17,5.1719,5.1483,5.1483,5.1483,0,5.0915,5.1003,5.0989,5.1057,5.1087,5.1048,5.1126,5.1151,5.12,5.1222,5.1186,5.1302,5.1322,5.1429,5.1466,5.1487,5.1509,5.1467,5.1629,5.1644,5.1658,5.171,5.173,5.1488,5.1488,5.1487,5.1487,0,5.1084,5.1146,5.1204,5.1254,5.1291,5.1364,5.1362,5.14,5.1386,5.1391,5.148,5.1503,5.1557,5.1582,5.1568,5.1689,5.1668,5.1631,5.1567,5.1685,5.1733,5.1753,5.1496,5.1494,5.1492,5.1491,0,0,5.1263,5.1307,5.1328,5.1352,5.1389,5.1437,5.1509,5.1563,5.1597,5.1633,5.1694,5.1774,5.1741,5.177,5.1759,5.1812,5.193,5.1768,5.1769,5.1798,5.2066,5.2094,5.2117,5.1911,5.1915,5.1918,5.2064,0,5.14,5.1526,5.1517,5.1636,5.1694,5.1658,5.1722,5.1752,5.1759,5.181,5.1817,5.1875,5.1826,5.1844,5.1895,5.1905,5.1984,5.1894,5.1968,5.1971,5.1961,5.2142,5.2171,5.2307,5.2082,5.2085,5.2088,0,5.1576,5.162,5.1745,5.1776,5.18,5.1857,5.1907,5.1955,5.199,5.1992,5.2026,5.2007,5.2081,5.2016,5.2119,5.2058,5.2088,5.2098,5.2103,5.2109,5.2036,5.2153,5.235,5.237,5.2117,5.2114,5.2112,0,5.1696,5.1786,5.1873,5.1894,5.1932,5.1973,5.1991,5.2022,5.2055,5.2099,5.2121,5.2173,5.2202,5.2243,5.2239,5.2192,5.2344,5.2278,5.2348,5.2348,5.2381,5.2379,5.2586,5.2401,5.24,5.24,5.24,0,5.185,5.1928,5.1928,5.1981,5.2068,5.2058,5.2144,5.2157,5.2186,5.2242,5.2215,5.2268,5.2259,5.2313,5.2311,5.2397,5.241,5.2414,5.2413,5.2417,5.2416,5.2436,5.2426,5.2405,5.2404,5.2403,5.2402,0,5.1998,5.2,5.2093,5.2122,5.2132,5.2195,5.222,5.2271,5.2277,5.2349,5.2365,5.2374,5.2436,5.2437,5.2508,5.2506,5.2612,5.26,5.2601,5.2598,5.2669,5.2662,5.2895,5.2925,5.2721,5.2723,5.2724,0,5.2095,5.2155,5.2191,5.2227,5.2248,5.2306,5.2341,5.2334,5.2371,5.2417,5.2463,5.2523,5.257,5.2672,5.2685,5.274,5.2729,5.2807,5.2736,5.274,5.2731,5.2727,5.2734,5.282,5.2822,5.2824,5.2826,0,5.227,5.2269,5.232,5.2373,5.2416,5.2457,5.2495,5.2526,5.2523,5.2567,5.2631,5.2668,5.2741,5.2802,5.2855,5.2874,5.285,5.2848,5.2867,5.2872,5.287,5.2873,5.2638,5.2842,5.2841,5.2839,5.2838,5.2838,5.2396,5.2448,5.2482,5.2541,5.2569,5.2606,5.2656,5.2669,5.2722,5.2782,5.2775,5.2846,5.2881,5.2951,5.2975,5.3031,5.3004,5.3032,5.3039,5.3046,5.3054,5.2862,5.3041,5.304,5.304,5.3039,5.3039,0,5.2569,5.259,5.2644,5.2699,5.2746,5.272,5.2762,5.2803,5.2866,5.2901,5.2949,5.3024,5.3083,5.3102,5.3159,5.3201,5.3192,5.3216,5.3213,5.3218,5.3074,5.3052,5.3223,5.3223,5.3223,5.3223,5.3223,5.3223,5.2665,5.2752,5.2756,5.2857,5.2878,5.2948,5.2974,5.3008,5.3036,5.3121,5.317,5.3183,5.3212,5.3272,5.3326,5.333,5.3352,5.3382,5.3382,5.3247,5.3228,5.321,5.319,5.3387,5.3387,5.3521,5.3522,5.3523]},{"header":{"parameterUnit":"m.s-1","parameterCategory":1,"la1":30.2991,"la2":30.254,"lo1":-89.0895,"lo2":-89.0444,"dy":0.0017,"dx":0.0017,"nx":28,"ny":28,"refTime":"2024-04-03T03:00:00:Z","depth":0,"parameterNumber":3,"parameterNumberName":"V-component_of_WINDS"},"data":[0,0,0,0,0,0,0,0,0,0,0,0,0,0,0,0,0,0,0,0,0,0,0,0,0,0,0,0,0,0,0,0,0,0,0,0,0,0,0,0,0,0,0,0,0,0,0,0,0,0,0,0,0,0,0,0,0,0,-6.6251,-6.6253,0,-6.6432,-6.6434,-6.6436,-6.6428,-6.6425,-6.6423,-6.6421,-6.6601,-6.6608,-6.6615,0,0,0,0,0,0,0,0,0,0,0,0,0,-6.5894,-6.59,-6.625,-6.6253,-6.6255,-6.6431,-6.6434,-6.6436,-6.6428,-6.6425,-6.6422,-6.6419,-6.6598,-6.6607,-6.6615,0,0,0,0,0,0,0,0,0,0,0,0,0,-6.6059,-6.5903,-6.625,-6.6272,-6.6276,-6.6431,-6.6434,-6.6437,-6.6429,-6.6425,-6.6421,-6.6418,-6.6596,-6.6606,-6.6617,-6.6759,0,0,-6.6649,-6.6654,0,0,0,0,0,0,0,0,-6.605,-6.6072,-6.6267,-6.6271,-6.6276,-6.6403,-6.6374,-6.6545,-6.643,-6.6371,-6.642,-6.6416,-6.6538,-6.6553,-6.6595,-6.6767,-6.6775,-6.665,-6.6657,-6.6661,-6.6664,0,0,0,0,0,0,0,-6.6038,-6.6064,-6.6322,-6.627,-6.6275,-6.6272,-6.6291,-6.6406,-6.6473,-6.6376,-6.6376,-6.6398,-6.6539,-6.6585,-6.6599,-6.6778,-6.665,-6.666,-6.6666,-6.667,-6.7076,-6.7081,0,0,0,0,0,0,-6.6023,-6.6055,-6.6316,-6.6327,-6.6151,-6.6282,-6.6303,-6.6366,-6.6472,-6.6485,-6.6401,-6.6396,-6.6568,-6.6587,-6.6606,-6.678,-6.6661,-6.6671,-6.6678,-6.7072,-6.7077,-6.7082,0,0,0,0,0,0,-6.6015,-6.6046,-6.6309,-6.6191,-6.6225,-6.6292,-6.6363,-6.6372,-6.6417,-6.6491,-6.6502,-6.6435,-6.6566,-6.6591,-6.6721,-6.6786,-6.6676,-6.6686,-6.7067,-6.7074,-6.708,-6.7129,0,0,0,0,0,0,-6.6005,-6.6043,-6.6099,-6.6193,-6.6231,-6.6423,-6.6367,-6.6378,-6.6436,-6.6433,-6.6526,-6.6538,-6.6565,-6.6706,-6.6732,-6.6799,-6.6694,-6.7061,-6.707,-6.7078,-6.7122,-6.7137,-6.7149,0,0,0,0,0,-6.5992,-6.6104,-6.6102,-6.6133,-6.6302,-6.6427,-6.6449,-6.6479,-6.6442,-6.6498,-6.6545,-6.6535,-6.6775,-6.6719,-6.6749,-6.682,-6.7058,-6.7068,-6.7077,-6.7116,-6.7134,-6.7149,0,0,0,0,0,0,-6.6015,-6.6117,-6.6115,-6.6262,-6.6336,-6.6425,-6.6497,-6.6497,-6.6582,-6.6574,-6.6607,-6.6628,-6.6759,-6.6802,-6.6739,-6.6963,-6.6911,-6.6927,-6.693,-6.6948,-6.6961,-6.6948,-6.6703,0,0,0,0,0,-6.6037,-6.6131,-6.6215,-6.6336,-6.6373,-6.6429,-6.6484,-6.6502,-6.6579,-6.661,-6.6667,-6.6741,-6.6833,-6.6893,-6.6981,-6.7128,-6.7148,-6.7192,-6.7205,-6.7216,-6.7229,-6.7311,-6.7331,-6.7114,-6.7114,-6.7114,0,0,-6.6083,-6.6151,-6.6208,-6.6342,-6.6402,-6.6497,-6.6455,-6.6558,-6.6629,-6.6625,-6.6753,-6.6797,-6.6882,-6.7022,-6.7086,-6.7062,-6.7294,-6.7228,-6.7236,-6.7244,-6.7323,-6.7343,-6.7361,-6.7121,-6.712,-6.7119,0,0,-6.6217,-6.6278,-6.6386,-6.6447,-6.6538,-6.6575,-6.6601,-6.6691,-6.6721,-6.685,-6.6849,-6.6933,-6.7091,-6.7152,-6.7204,-6.7362,-6.7355,-6.739,-6.746,-6.7538,-6.7556,-6.7571,-6.7627,-6.7647,-6.7403,-6.7403,-6.7403,0,-6.6263,-6.6409,-6.6441,-6.6545,-6.6604,-6.6607,-6.6716,-6.6773,-6.6888,-6.6928,-6.6899,-6.7099,-6.7156,-6.731,-6.7349,-6.739,-6.742,-6.7379,-6.7551,-6.7566,-6.7581,-6.7635,-6.7657,-6.7406,-6.7406,-6.7406,-6.7405,0,-6.646,-6.6561,-6.6637,-6.6751,-6.6818,-6.6924,-6.6971,-6.7035,-6.7047,-6.7086,-6.7217,-6.7286,-6.7389,-6.7427,-6.7439,-6.7584,-6.7566,-6.7544,-6.7492,-6.7605,-6.7656,-6.7677,-6.7412,-6.741,-6.7409,-6.7408,0,0,-6.6612,-6.6744,-6.6771,-6.6823,-6.6924,-6.7003,-6.7108,-6.7211,-6.7266,-6.7345,-6.7434,-6.7568,-6.7549,-6.7608,-6.7626,-6.7695,-6.7816,-6.7665,-6.7667,-6.7691,-6.798,-6.7996,-6.802,-6.7813,-6.7817,-6.7821,-6.7973,0,-6.6757,-6.6947,-6.6979,-6.7145,-6.7239,-6.7243,-6.7335,-6.7407,-6.7446,-6.753,-6.7573,-6.7668,-6.7635,-6.7671,-6.774,-6.7787,-6.7875,-6.7777,-6.7895,-6.7899,-6.7874,-6.8047,-6.8064,-6.8205,-6.7994,-6.7997,-6.8,0,-6.6951,-6.7037,-6.7213,-6.7303,-6.7343,-6.7426,-6.7523,-6.7604,-6.7685,-6.7709,-6.7775,-6.7786,-6.7895,-6.7838,-6.7989,-6.7921,-6.7971,-6.8002,-6.8008,-6.802,-6.7956,-6.8063,-6.825,-6.8271,-6.8032,-6.8029,-6.8027,0,-6.7044,-6.7205,-6.7331,-6.7375,-6.7483,-6.7541,-6.7588,-6.7666,-6.7726,-6.781,-6.785,-6.7945,-6.7997,-6.807,-6.8106,-6.8061,-6.8253,-6.82,-6.8275,-6.8275,-6.8315,-6.8312,-6.8513,-6.8348,-6.8348,-6.8347,-6.8347,0,-6.7202,-6.7309,-6.7375,-6.7452,-6.7572,-6.7608,-6.7725,-6.7771,-6.7841,-6.7926,-6.7935,-6.8015,-6.8057,-6.8143,-6.8171,-6.8291,-6.8315,-6.8336,-6.8342,-6.8336,-6.8333,-6.8369,-6.836,-6.8353,-6.8352,-6.8351,-6.835,0,-6.7327,-6.7375,-6.7513,-6.7605,-6.763,-6.7715,-6.7792,-6.7867,-6.7907,-6.8015,-6.8042,-6.8104,-6.8205,-6.8249,-6.8373,-6.8392,-6.8529,-6.8528,-6.8503,-6.8505,-6.8578,-6.857,-6.8809,-6.8842,-6.8655,-6.8656,-6.8658,0,-6.7424,-6.7507,-6.7609,-6.7668,-6.7717,-6.7812,-6.7874,-6.7912,-6.7976,-6.8076,-6.8138,-6.8241,-6.8324,-6.8486,-6.8541,-6.8636,-6.8637,-6.8714,-6.8651,-6.8642,-6.8638,-6.8633,-6.8641,-6.8725,-6.8727,-6.8729,-6.873,0,-6.7593,-6.7613,-6.7703,-6.7802,-6.7876,-6.7955,-6.8032,-6.8079,-6.8129,-6.82,-6.8306,-6.8371,-6.8499,-6.86,-6.8699,-6.8746,-6.8746,-6.875,-6.8772,-6.8766,-6.8748,-6.8759,-6.8534,-6.8744,-6.8742,-6.8741,-6.8741,-6.874,-6.7707,-6.7781,-6.7865,-6.7964,-6.8027,-6.8099,-6.8175,-6.8224,-6.8313,-6.8422,-6.8439,-6.8551,-6.863,-6.8763,-6.8814,-6.8901,-6.8882,-6.8914,-6.8923,-6.893,-6.8935,-6.8734,-6.8919,-6.8919,-6.8919,-6.8918,-6.8918,0,-6.7876,-6.793,-6.8022,-6.813,-6.8209,-6.8205,-6.829,-6.8356,-6.8455,-6.853,-6.8613,-6.8733,-6.8832,-6.8895,-6.8994,-6.9052,-6.9055,-6.9077,-6.9072,-6.9083,-6.8947,-6.8917,-6.9073,-6.9073,-6.9073,-6.9073,-6.9073,-6.9073,-6.7973,-6.8099,-6.8129,-6.8285,-6.8338,-6.845,-6.8499,-6.8565,-6.8625,-6.876,-6.8843,-6.8884,-6.8954,-6.9059,-6.9148,-6.9164,-6.92,-6.9223,-6.9238,-6.9109,-6.9093,-6.9078,-6.905,-6.9231,-6.9231,-6.9368,-6.9369,-6.937]}]]